Regional Weather Roundup
Issued by NWS Newport/Morehead, NC

Current Version | Previous Version | Text Only | Print | Product List | Glossary Off
Versions: 1 2 3 4 5 6 7 8 9 10 11 12 13 14 15 16 17 18 19 20 21 22 23 24 25 26 27 28 29 30 31 32 33 34 35 36 37 38 39 40 41 42 43 44 45 46 47 48 49 50
000 ASUS42 KMHX 042025 RWRMHX WEATHER ROUNDUP FOR EASTERN NORTH CAROLINA NATIONAL WEATHER SERVICE NEWPORT/MOREHEAD CITY NC 400 PM EDT FRI SEP 04 2015 NOTE: "FAIR" INDICATES FEW OR NO CLOUDS BELOW 12,000 FEET WITH NO SIGNIFICANT WEATHER AND/OR OBSTRUCTIONS TO VISIBILITY NCZ015>017-031-032-045>047-102-103-042100- NORTH COAST CITY SKY/WX TMP DP RH WIND PRES REMARKS EDENTON PTSUNNY 79 70 73 CALM 29.97S ELIZABETH CITY LGT RAIN 84 70 62 NE14 29.97S KITTY HAWK PTCLDY 85 73 67 NE7 29.95S MANTEO PTSUNNY 83 75 77 NE13 29.96F $$ NCZ045>047-081-094-103-104-042100- CENTRAL COAST CITY SKY/WX TMP DP RH WIND PRES REMARKS FRISCO MOSUNNY 88 75 65 VRB6 29.94F SWANQUARTER N/A 90 N/A N/A NE3 29.91S $$ NCZ095-097-098-100-101-042100- SOUTHERN COAST CITY SKY/WX TMP DP RH WIND PRES REMARKS BEAUFORT SUNNY 86 76 71 S9 29.93F CEDAR ISLAND N/A 86 N/A N/A N6 29.97S JACKSONVILLE MOSUNNY 90 67 46 NE5 29.93F PINEY ISLAND PTCLDY N/A N/A N/A NE8 29.93 WILMINGTON SUNNY 89 69 51 SE9 29.94F $$ NCZ011>013-027>030-043-044-078>080-089-090>093-098-042100- COASTAL PLAIN CITY SKY/WX TMP DP RH WIND PRES REMARKS AHOSKIE CLOUDY 86 71 59 NE6 29.97S CLINTON SUNNY 92 69 46 CALM 29.94F ELIZABETHTOWN MOSUNNY 92 67 43 E6 29.94F GOLDSBORO MOSUNNY 92 71 49 N3 29.93F GREENVILLE MOSUNNY 90 70 51 NE3 29.97F HAVELOCK MOSUNNY 90 70 51 E5 29.94F KENANSVILLE N/A 90 66 44 N5 29.95F KINSTON MOSUNNY 91 70 49 NE3 29.95F NEW BERN MOSUNNY 90 72 55 W8 29.94F RICHLANDS MOSUNNY 91 66 43 NE6 29.94F ROCKY MOUNT PTSUNNY 83 67 58 E5 29.96F THUNDER WASHINGTON PTSUNNY 80 70 70 NW3 29.95S WHITEVILLE MOSUNNY 92 69 46 E7 29.94F $$ AMZ130-135-150-152-154-156-158-170-250-252-270-ANZ085-086-088-633-658-670-042100- MARINE OBSERVATIONS STATION/POSITION TIME TEMP WIND PRES WAVE SWELL AIR SEA DIR/SP/G HT/PER HT/PER (UTC) (F) (DEG/KT/KT) (MB) (FT/S) (FT/S) CHESAPEAKE LIGHT 2000 79 60/ 17/ 18 1015.8 64 E VA BEACH 1950 80 80 60/ 14/ 17 1014.2 2/ 3 2/10 DUCK 2000 80 81 40/ 15/ 16 1013.9 2 E DUCK 2011 81 N/A 3/ 3 OREGON INLET 2000 81 83 20/ 11/ 13 1014.1 13E OREGON INLT 2000 81 N/A 1/12 HATTERAS CG 2000 84 84 10/ 9/ 12 1013.7 DIAMOND BUOY 1950 84 85 10/ 4/ 8 1013.9 1/11 2/11 CAPE LOOKOUT 2000 84 130/ 5/ 6 1013.5 BEAUFORT LAB 2000 86 82 180/ 7/ 8 1013.1 30 SE NEW RVR IN 1908 83 83 20/ 2/ 4 1014.8 30 SE NEW RVR IN 1925 84 N/A 1/13 27 SE WRIGHTSVLE 2000 81 83 70/ 4/ 4 N/A 5 SE WRIGHTSVLE 1908 83 83 120/ 6/ 8 1014.7 225 S CAPE HAT 1950 83 85 350/ 8/ 10 1013.0 2/11 2/11 41 SE CHARLESTON 1950 83 86 70/ 6/ 8 1013.5 1/ 8 2/ 8 $$

USA.gov is the U.S. government's official web portal to all federal, state and local government web resources and services.